Location: Sungai Laei
(2.6000°N, 113.7167°E)
Time: 14:10:09
(UTC+00:00)

Cosmos 2344 - Pass Details

Date: 22 May 2022
Orbit: 1228 x 3015 km, 63.3° (Epoch: 06 July)

Event Time Altitude Azimuth Distance (km) Brightness Sun altitude
Rises 12:10:01 0° 203° (SSW) 5,465 6.9 -24.2°
Reaches altitude 10° 12:13:45 10° 203° (SSW) 4,219 6.3 -25.0°
Maximum altitude 12:23:54 88° 293° (WNW) 1,470 3.8 -27.4°
Drops below altitude 10° 12:31:38 10° 22° (NNE) 3,265 5.7 -29.1°
Sets 12:34:10 0° 23° (NNE) 4,174 6.3 -29.7°
